Regional Weather Roundup
Issued by NWS

Home | Current Version | Previous Version | Text Only | Print | Product List | Glossary Off
Versions: 1 2 3 4 5 6 7 8 9 10 11 12 13 14 15 16 17 18 19 20 21 22 23 24 25 26 27 28 29 30 31 32 33 34 35 36 37 38 39 40 41 42 43 44 45 46 47 48 49 50

000
ASUS43 KLSX 300707
RWRMO

WEATHER SUMMARY FOR MISSOURI
NATIONAL WEATHER SERVICE SPRINGFIELD MO
200 AM CDT THU JUL 30 2015

NOTE: "FAIR" INDICATES FEW OR NO CLOUDS BELOW 12,000 FEET WITH NO
       SIGNIFICANT WEATHER AND/OR OBSTRUCTIONS TO VISIBILITY.
       CURRENT SKY AND/OR WEATHER CONDITIONS ARE NOT AVAILABLE FOR
       CHILLICOTHE AND FARMINGTON.

MOZ001>031-035>038-043-044-053-054-300800-
...NORTHERN AND WESTERN MISSOURI...

CITY           SKY/WX    TMP DP  RH WIND       PRES   REMARKS
KANSAS CTY INT PTCLDY    70  65  84 NE3       30.17S
KANSAS C DTWN  CLEAR     71  67  87 CALM      30.16S
LEE`S SUMMIT   CLEAR     71  65  81 CALM      30.18S
ST JOSEPH      CLEAR     64  63  96 CALM      30.17S
CHILLICOTHE      N/A     65  63  93 CALM      30.18S
KIRKSVILLE     CLEAR     64  61  90 W3        30.17F

$$
MOZ066>068-077>081-088>096-101>105-300800-
...SOUTHWEST MISSOURI...

CITY           SKY/WX    TMP DP  RH WIND       PRES   REMARKS
SPRINGFIELD    PTCLDY    74  65  73 NE3       30.16R
JOPLIN         MOCLDY    76  68  76 NE6       30.15S

$$
MOZ032>034-039>042-045>050-055>058-069>072-300800-
...CENTRAL MISSOURI...

CITY           SKY/WX    TMP DP  RH WIND       PRES   REMARKS
COLUMBIA       CLEAR     69  62  78 N5        30.15F
JEFFERSON CITY PTCLDY    67  64  90 CALM      30.14F
ROLLA          CLEAR     65  61  87 CALM      30.15S
SEDALIA        PTCLDY    69  65  86 CALM      30.17S
WHITEMAN AFB   MOCLDY    67  64  89 CALM      30.15S
WARRENSBURG    CLEAR     66  64  94 CALM      30.17R
OSAGE BEACH    PTCLDY    68  63  83 CALM      30.16S

$$
MOZ051-052-059>065-300800-
...EAST CENTRAL MISSOURI...

CITY           SKY/WX    TMP DP  RH WIND       PRES   REMARKS
ST LOUIS INTL  PTCLDY    73  61  65 NW7       30.13S
SPIRIT OF STL  CLEAR     66  64  93 CALM      30.12S
ST CHARLES     CLEAR     73  62  68 W6        30.12S

$$
MOZ072>076-082>087-097>100-106>115-300800-
...SOUTH CENTRAL AND SOUTHEAST MISSOURI...

CITY           SKY/WX    TMP DP  RH WIND       PRES   REMARKS
CAPE GIRARDEAU NOT AVBL
FARMINGTON     CLEAR     66  63  88 CALM      30.17S
POPLAR BLUFF   CLEAR     76  68  76 N7        30.07S
WEST PLAINS    CLEAR     72  65  78 NE7       30.16S

$$


USA.gov is the U.S. government's official web portal to all federal, state and local government web resources and services.